Location: Vinland
(47.7731°N, 122.6974°W)
Time: 11:36:50
(UTC+00:00)

Explorer 7 - Visible Passes

Search period start: 30 March 2023 00:00
Search period end: 09 April 2023 00:00
Orbit: 478 x 657 km, 50.3° (Epoch: 30 March)

Date Brightness Start Highest point End Pass type
(mag) Time Alt. Az. Time Alt. Az. Time Alt. Az.
30 Mar 7.0 03:06:54 10° WNW 03:11:16 70° NNE 03:15:21 10° E visible
30 Mar 7.3 04:47:22 10° WNW 04:51:23 44° SSW 04:51:31 44° SSW visible
31 Mar 6.9 03:07:02 10° WNW 03:11:26 81° NNE 03:15:32 10° ESE visible
31 Mar 7.8 04:47:37 10° W 04:51:24 33° SW 04:51:43 32° SSW visible
01 Apr 6.9 03:07:10 10° WNW 03:11:33 85° SSW 03:15:39 10° ESE visible
01 Apr 8.4 04:47:56 10° W 04:51:20 24° SW 04:51:57 23° SSW visible
02 Apr 7.1 03:07:16 10° WNW 03:11:36 68° SSW 03:15:41 10° ESE visible
02 Apr 8.9 04:48:26 10° W 04:51:11 17° SW 04:52:14 16° SSW visible
03 Apr 7.5 03:07:22 10° WNW 03:11:37 52° SSW 03:15:36 10° SE visible
03 Apr 9.3 04:49:25 10° WSW 04:51:00 12° SW 04:52:33 10° SSW visible
